Tonopah, NV

3:19 PM PST on February 10, 2016 (GMT -0800)
Tonopah

Weather History for KTPH - November, 2011

Change the Weather History Date:

Friday, November 11, 2011

  Actual Average Record
Temperature  
Mean Temperature 38 °F 42 °F  
Max Temperature 47 °F 56 °F 72 °F (1989)
Min Temperature 29 °F 28 °F 13 °F (1985)
Degree Days  
Heating Degree Days 27 23  
Month to date heating degree days 345 230  
Since 1 July heating degree days 677 702  
Cooling Degree Days 0 0  
Month to date cooling degree days 0 0  
Year to date cooling degree days 768 783  
Moisture  
Dew Point 21 °F    
Average Humidity 49    
Maximum Humidity 70    
Minimum Humidity 27    
Precipitation  
Precipitation T in 0.01 in 0.47 in (1954)
Month to date precipitation 0.09 0.15  
Year to date precipitation 3.12 4.64  
Sea Level Pressure  
Sea Level Pressure 29.99 in    
Wind  
Wind Speed 7 mph (ESE)    
Max Wind Speed 17 mph    
Max Gust Speed 21 mph    
Visibility 10 miles    
Events      
T = Trace of Precipitation, MM = Missing Value Source: NWS Daily Summary

Daily Weather History Graph

Daily Weather History Graph

Search for Another Location

Airport or City:

Trip Planner

Search our weather history database for the weather conditions in past years. The results will help you decide how hot, cold, wet, or windy it might be!

Date:

Astronomy

Nov. 11, 2011 Rise Set
Actual Time 6:24 AM PST 4:39 PM PST
Civil Twilight 5:56 AM PST 5:07 PM PST
Nautical Twilight 5:25 AM PST 5:39 PM PST
Astronomical Twilight 4:54 AM PST 6:10 PM PST
Moon 5:13 PM PST (11/11) 7:15 AM PST (11/11)
Length of Visible Light 11h 10m
Length of Day
10h 14m
Full, 99% of the Moon is Illuminated
Nov 11
Full
Nov 18
Last Quarter
Nov 24
New
Dec 2
First Quarter
Dec 10
Full

Hourly Weather History & Observations

Time (PST) Temp. Windchill Dew Point Humidity Pressure Visibility Wind Dir Wind Speed Gust Speed Precip Events Conditions
12:56 AM 30.0 °F 21.7 °F 12.9 °F 49% 30.12 in 10.0 mi North 9.2 mph - N/A   Clear
1:56 AM 30.0 °F 21.7 °F 12.9 °F 49% 30.11 in 10.0 mi North 9.2 mph - N/A   Clear
2:56 AM 30.0 °F 23.2 °F 14.0 °F 51% 30.08 in 10.0 mi North 6.9 mph - N/A   Clear
4:56 AM 30.9 °F 23.5 °F 14.0 °F 50% 30.06 in 10.0 mi North 8.1 mph - N/A   Clear
6:56 AM 32.0 °F 27.5 °F 15.1 °F 50% 30.07 in 10.0 mi North 4.6 mph - N/A   Mostly Cloudy
7:56 AM 34.0 °F 29.8 °F 16.0 °F 48% 30.09 in 10.0 mi North 4.6 mph - N/A   Overcast
8:56 AM 37.0 °F - 17.1 °F 44% 30.09 in 10.0 mi Calm Calm - N/A   Overcast
9:56 AM 42.1 °F - 12.9 °F 31% 30.07 in 10.0 mi Calm Calm - N/A   Overcast
10:56 AM 44.1 °F 40.8 °F 12.9 °F 28% 30.04 in 10.0 mi South 5.8 mph - N/A   Mostly Cloudy
11:56 AM 46.0 °F 41.4 °F 15.1 °F 29% 30.01 in 10.0 mi South 9.2 mph - N/A   Mostly Cloudy
12:56 PM 46.0 °F 41.0 °F 15.1 °F 29% 29.97 in 10.0 mi SSE 10.4 mph - N/A   Overcast
2:56 PM 44.1 °F 37.1 °F 25.0 °F 47% 29.94 in 10.0 mi SE 15.0 mph - N/A   Overcast
3:56 PM 44.1 °F 36.5 °F 30.0 °F 58% 29.91 in 10.0 mi SE 17.3 mph - N/A   Mostly Cloudy
4:56 PM 41.0 °F 34.7 °F 30.0 °F 65% 29.91 in 10.0 mi ESE 10.4 mph - N/A   Overcast
5:56 PM 37.9 °F 34.4 °F 28.0 °F 68% 29.91 in 10.0 mi ESE 4.6 mph - N/A   Partly Cloudy
6:56 PM 37.9 °F 31.5 °F 28.0 °F 68% 29.90 in 10.0 mi SE 9.2 mph - N/A   Mostly Cloudy
7:56 PM 37.9 °F - 28.0 °F 68% 29.91 in 10.0 mi Calm Calm - N/A   Overcast
8:56 PM 39.0 °F 36.8 °F 27.0 °F 62% 29.90 in 10.0 mi South 3.5 mph - N/A   Mostly Cloudy
9:56 PM 39.0 °F - 27.0 °F 62% 29.88 in 10.0 mi Calm Calm - N/A   Overcast
10:56 PM 39.0 °F 34.8 °F 26.1 °F 60% 29.87 in 10.0 mi South 5.8 mph - N/A   Overcast
11:56 PM 37.9 °F 32.7 °F 28.9 °F 70% 29.85 in 10.0 mi SSE 6.9 mph - 0.00 in   Overcast